Dyess AFB, TX

5:57 AM CST on February 22, 2017 (GMT -0600)
Dyess Air Force Base

Weather History for KDYS - March, 2014

Change the Weather History Date:

Saturday, March 29, 2014

  Actual Average Record
Temperature  
Mean Temperature 56 °F -  
Max Temperature 75 °F 69 °F 90 °F (2015)
Min Temperature 37 °F 48 °F 27 °F (2009)
Degree Days  
Heating Degree Days 9    
Growing Degree Days 6 (Base 50)    
Moisture  
Dew Point 29 °F    
Average Humidity 42    
Maximum Humidity 81    
Minimum Humidity 14    
Precipitation  
Precipitation 0.00 in - - ()
Sea Level Pressure  
Sea Level Pressure 30.18 in    
Wind  
Wind Speed 6 mph (East)    
Max Wind Speed 13 mph    
Max Gust Speed 17 mph    
Visibility 10 miles    
Events      
Averages and records for this station are not official NWS values.
T = Trace of Precipitation, MM = Missing Value Source: NWS Daily Summary

Daily Weather History Graph

Daily Weather History Graph

Search for Another Location

Airport or City:

Trip Planner

Search our weather history database for the weather conditions in past years. The results will help you decide how hot, cold, wet, or windy it might be!

Date:

Astronomy

Mar. 29, 2014 Rise Set
Actual Time 7:31 AM CDT 7:57 PM CDT
Civil Twilight 7:06 AM CDT 8:21 PM CDT
Nautical Twilight 6:37 AM CDT 8:50 PM CDT
Astronomical Twilight 6:08 AM CDT 9:20 PM CDT
Moon 6:37 AM CDT (3/29) 7:06 PM CDT (3/29)
Length of Visible Light 13h 15m
Length of Day
12h 25m
Waning Crescent, 2% of the Moon is Illuminated
Mar 29
Waning Crescent
Mar 30
New
Apr 7
First Quarter
Apr 15
Full
Apr 22
Last Quarter

Hourly Weather History & Observations

Time (CDT) Temp. Windchill Dew Point Humidity Pressure Visibility Wind Dir Wind Speed Gust Speed Precip Events Conditions
12:58 AM 48.2 °F - 35.6 °F 62% 30.11 in 10.0 mi North 4.6 mph - N/A   Clear
1:58 AM 46.4 °F 42.4 °F 33.8 °F 62% 30.13 in 10.0 mi NE 8.1 mph - N/A   Clear
2:58 AM 46.4 °F 42.9 °F 33.8 °F 62% 30.13 in 10.0 mi NNE 6.9 mph - N/A   Clear
3:58 AM 46.4 °F 43.5 °F 33.8 °F 62% 30.12 in 10.0 mi North 5.8 mph - N/A   Clear
4:58 AM 44.6 °F 39.7 °F 33.8 °F 66% 30.12 in 10.0 mi NNE 9.2 mph - N/A   Clear
5:58 AM 41.0 °F 39.0 °F 32.0 °F 70% 30.16 in 10.0 mi NW 3.5 mph - N/A   Clear
6:58 AM 37.4 °F - 32.0 °F 81% 30.20 in 10.0 mi WNW 2.3 mph - N/A   Clear
7:58 AM 37.4 °F 33.8 °F 32.0 °F 81% 30.25 in 10.0 mi WSW 4.6 mph - N/A   Clear
8:58 AM 46.4 °F 44.3 °F 33.8 °F 62% 30.28 in 10.0 mi NW 4.6 mph - N/A   Clear
9:58 AM 50.0 °F - 35.6 °F 58% 30.30 in 10.0 mi NNW 3.5 mph - N/A   Clear
10:58 AM 55.4 °F - 35.6 °F 47% 30.30 in 10.0 mi WNW 2.3 mph - N/A   Clear
11:58 AM 62.6 °F - 32.0 °F 32% 30.30 in 10.0 mi Variable 4.6 mph - N/A   Clear
12:58 PM 66.2 °F - 32.0 °F 28% 30.27 in 10.0 mi East 4.6 mph 16.1 mph N/A   Clear
1:58 PM 69.8 °F - 28.4 °F 21% 30.24 in 10.0 mi East 9.2 mph - N/A   Clear
2:58 PM 71.6 °F - 21.2 °F 15% 30.21 in 10.0 mi ESE 9.2 mph - N/A   Clear
3:58 PM 73.4 °F - 21.2 °F 14% 30.16 in 10.0 mi ESE 6.9 mph - N/A   Clear
4:58 PM 75.2 °F - 24.8 °F 15% 30.13 in 10.0 mi ESE 12.7 mph - N/A   Clear
5:58 PM 75.2 °F - 24.8 °F 15% 30.12 in 10.0 mi East 12.7 mph 17.3 mph N/A   Clear
6:58 PM 73.4 °F - 23.0 °F 15% 30.12 in 10.0 mi South 8.1 mph - N/A   Clear
7:58 PM 68.0 °F - 24.8 °F 20% 30.14 in 10.0 mi SE 6.9 mph - N/A   Clear
8:58 PM 66.2 °F - 24.8 °F 21% 30.12 in 10.0 mi SSE 8.1 mph - N/A   Clear
9:58 PM 55.4 °F - 24.8 °F 31% 30.15 in 10.0 mi South 8.1 mph - N/A   Clear
10:58 PM 51.8 °F - 24.8 °F 35% 30.14 in 10.0 mi SSE 5.8 mph - N/A   Clear
11:58 PM 57.2 °F - 24.8 °F 29% 30.11 in 10.0 mi SSE 8.1 mph - N/A   Clear